KJ4RDP-13 Weather Reports


time (UTC)temp
F
wind
direction
speed
knots
gust
knots
rain 1hr
in
rain 24hr
in
rain mn
in
humidity
%
barometer
mb
20260906052306 67 161 0.0 0.0 0.00 0.00 0.00 99 1015.2
20260906051802 67 161 0.0 0.0 0.00 0.00 0.00 99 1015.7
20260906051301 67 161 0.0 0.0 0.00 0.00 0.00 99 1015.2
20260906050756 67 161 0.0 0.0 0.00 0.00 0.00 99 1015.7
20260906050252 67 161 0.0 0.0 0.00 0.00 0.00 99 1015.7
20260906045750 67 161 0.0 0.0 0.00 0.00 0.00 99 1015.7
20260906045245 67 161 0.0 0.0 0.00 0.00 0.00 99 1015.7
20260906044741 67 161 0.0 0.0 0.00 0.00 0.00 99 1015.2
20260906044236 67 161 0.0 0.0 0.00 0.00 0.00 99 1015.2
20260906043732 67 161 0.0 0.0 0.00 0.00 0.00 99 1015.2
20260906043228 67 161 0.0 0.0 0.00 0.00 0.00 99 1015.2
20260906042727 67 161 0.0 0.0 0.00 0.00 0.00 99 1015.7
20260906042226 67 161 0.0 0.0 0.00 0.00 0.00 99 1015.7
20260906041722 67 161 0.0 0.0 0.00 0.00 0.00 99 1015.7
20260906041217 68 161 0.0 0.0 0.00 0.00 0.00 99 1015.2
20260906040713 67 161 0.0 0.0 0.00 0.00 0.00 99 1015.2
20260906040208 68 161 0.0 0.0 0.00 0.00 0.00 99 1015.2
20260906035704 67 160 0.0 0.0 0.00 0.00 0.00 99 1015.2
20260906035159 67 160 0.0 0.0 0.00 0.00 0.00 99 1015.7
20260906034659 68 160 0.0 0.0 0.00 0.00 0.00 99 1015.7
20260906034153 67 160 0.0 0.0 0.00 0.00 0.00 99 1015.7
20260906033644 68 160 0.0 0.0 0.00 0.00 0.00 99 1015.7
20260906033144 68 160 0.0 0.0 0.00 0.00 0.00 99 1016.0
20260906032641 68 160 0.0 0.0 0.00 0.00 0.00 99 1015.7
20260906032140 68 161 0.0 0.0 0.00 0.00 0.00 99 1016.0
20260906031636 68 145 0.0 0.0 0.00 0.00 0.00 99 1016.0
20260906031131 68 145 0.0 0.0 0.00 0.00 0.00 99 1016.4
20260906030630 68 145 0.0 0.0 0.00 0.00 0.00 99 1016.4
20260906030126 68 145 0.0 0.0 0.00 0.00 0.00 99 1016.4
20260906025625 68 145 0.0 0.0 0.00 0.00 0.00 99 1016.0
20260906025124 68 145 0.0 0.0 0.00 0.00 0.00 99 1016.0
20260906024619 68 145 0.0 0.0 0.00 0.00 0.00 99 1016.0
20260906024113 68 145 0.0 0.0 0.00 0.00 0.00 99 1016.0
20260906023609 68 144 0.0 0.0 0.00 0.00 0.00 99 1015.7
20260906023103 68 180 0.0 0.0 0.00 0.00 0.00 99 1016.0
20260906022559 69 181 0.0 0.0 0.00 0.00 0.00 99 1015.7
20260906022054 69 181 0.0 0.0 0.00 0.00 0.00 99 1015.7
20260906021550 69 181 0.0 0.0 0.00 0.00 0.00 99 1015.2
20260906021049 69 181 0.0 0.0 0.00 0.00 0.00 99 1015.2
20260906020549 69 181 0.0 0.0 0.00 0.00 0.00 99 1015.2
20260906020048 69 181 0.0 0.0 0.00 0.00 0.00 99 1015.7
20260906015548 69 181 0.0 0.0 0.00 0.00 0.00 99 1015.2
20260906015047 70 180 0.0 0.0 0.00 0.00 0.00 99 1015.2
20260906014542 70 201 0.0 0.0 0.00 0.00 0.00 99 1015.2
20260906014038 70 202 0.0 0.0 0.00 0.00 0.00 99 1015.7
20260906013533 70 202 0.0 0.0 0.00 0.00 0.00 99 1015.7
20260906013029 70 202 0.0 0.0 0.00 0.00 0.00 99 1015.2
20260906012524 70 202 0.0 0.0 0.00 0.00 0.00 99 1015.2
20260906012023 70 202 0.0 0.0 0.00 0.00 0.00 99 1015.2
20260906011520 70 202 0.0 0.0 0.00 0.00 0.00 99 1015.2
20260906011019 71 202 0.0 0.0 0.00 0.00 0.00 99 1015.2
20260906010514 71 202 0.0 0.0 0.00 0.00 0.00 99 1014.9
20260906010011 71 202 0.0 0.0 0.00 0.00 0.00 99 1015.2
20260906005510 71 202 0.0 0.0 0.00 0.00 0.00 99 1014.9
20260906005009 71 202 0.0 0.0 0.00 0.00 0.00 99 1014.9
20260906004509 71 202 0.0 0.0 0.00 0.00 0.00 99 1014.9
20260906004004 71 203 0.0 0.0 0.00 0.00 0.00 99 1014.6
20260906003459 72 203 0.0 0.0 0.00 0.00 0.00 99 1014.9
20260906002955 72 203 0.0 0.0 0.00 0.00 0.00 99 1014.6
20260906002455 72 203 0.0 0.0 0.00 0.00 0.00 99 1014.6
20260906001950 72 203 0.0 0.0 0.00 0.00 0.00 99 1014.6
20260906001446 73 203 0.0 0.0 0.00 0.00 0.00 99 1014.6
20260906000940 73 203 0.0 0.0 0.00 0.00 0.00 99 1014.9
20260906000436 73 203 0.0 0.0 0.00 0.00 0.00 99 1014.6
20260905235930 74 203 0.0 0.0 0.00 0.00 0.00 99 1014.6
20260905235430 74 203 0.0 0.0 0.00 0.00 0.00 99 1014.6
20260905234925 74 203 0.0 0.0 0.00 0.00 0.00 99 1014.2
20260905234420 75 203 0.0 0.0 0.00 0.00 0.00 99 1014.6
20260905233915 75 203 0.0 0.0 0.00 0.00 0.00 98 1014.6
20260905233410 76 203 0.0 0.0 0.00 0.00 0.00 98 1014.2
20260905232909 77 203 0.0 0.0 0.00 0.00 0.00 95 1014.2
20260905232406 78 287 0.0 0.0 0.00 0.00 0.00 92 1014.6
20260905231901 79 130 0.0 0.0 0.00 0.00 0.00 92 1014.2
20260905231356 80 335 0.0 0.0 0.00 0.00 0.00 88 1014.2
20260905230853 80 335 0.0 0.0 0.00 0.00 0.00 88 1014.2
20260905230350 80 335 0.0 0.0 0.00 0.00 0.00 87 1014.2
20260905225850 81 335 0.0 0.9 0.00 0.00 0.00 85 1013.8
20260905225345 82 335 0.0 0.0 0.00 0.00 0.00 83 1013.8
20260905224839 83 335 0.0 0.0 0.00 0.00 0.00 83 1014.2
20260905224330 86 335 0.0 0.0 0.00 0.00 0.00 76 1013.8
20260905223830 84 335 0.0 0.0 0.00 0.00 0.00 77 1014.2
20260905223327 83 335 0.0 0.0 0.00 0.00 0.00 80 1014.2
20260905222817 84 335 0.0 0.0 0.00 0.00 0.00 77 1014.2
20260905222316 81 335 0.0 0.0 0.00 0.00 0.00 77 1014.2
20260905221812 81 335 0.0 0.0 0.00 0.00 0.00 79 1014.2
20260905221309 82 329 0.0 0.0 0.00 0.00 0.00 79 1014.2
20260905220804 84 328 0.0 0.0 0.00 0.00 0.00 75 1014.6
20260905220300 82 328 0.0 0.0 0.00 0.00 0.00 75 1014.6
20260905215759 84 328 0.0 0.0 0.00 0.00 0.00 77 1014.6
20260905215255 85 329 0.0 0.0 0.00 0.00 0.00 73 1014.6
20260905214750 84 330 0.0 0.0 0.00 0.00 0.00 75 1014.6
20260905214246 84 329 0.0 0.9 0.00 0.00 0.00 75 1014.2
20260905213741 82 335 0.0 0.0 0.00 0.00 0.00 75 1014.6
20260905213238 82 332 0.9 0.9 0.00 0.00 0.00 79 1014.6
20260905212733 83 339 0.0 0.0 0.00 0.00 0.00 73 1014.9
20260905212232 84 339 0.0 0.9 0.00 0.00 0.00 73 1014.9
20260905211731 83 340 0.0 0.0 0.00 0.00 0.00 74 1014.9
20260905211227 83 340 0.0 0.0 0.00 0.00 0.00 73 1014.9
20260905210723 83 240 0.0 0.9 0.00 0.00 0.00 74 1015.2
20260905210223 81 238 0.9 0.9 0.00 0.00 0.00 76 1015.2
20260905205722 80 238 0.0 0.0 0.00 0.00 0.00 81 1015.2
20260905205216 80 238 0.0 0.0 0.00 0.00 0.00 81 1015.2
20260905204710 78 233 0.0 0.0 0.00 0.00 0.00 84 1014.9
20260905204206 78 233 0.0 0.0 0.00 0.00 0.00 84 1014.9
20260905203700 77 225 0.9 1.7 0.00 0.00 0.00 88 1015.2
20260905203156 77 219 2.6 2.6 0.00 0.00 0.00 87 1014.9
20260905202651 75 179 0.0 0.0 0.00 0.00 0.00 95 1014.9
20260905202146 75 178 0.0 0.0 0.00 0.00 0.00 97 1015.7
20260905201642 74 178 0.0 0.0 0.00 0.00 0.00 99 1015.2
20260905201136 73 176 0.0 0.0 0.00 0.00 0.00 99 1015.7
20260905200631 74 132 0.0 0.0 0.00 0.00 0.00 99 1015.7
20260905200127 73 182 0.0 0.0 0.00 0.00 0.00 99 1015.7
20260905195625 73 182 0.0 0.0 0.00 0.00 0.00 99 1016.0
20260905195121 73 171 0.0 0.0 0.00 0.00 0.00 99 1015.7
20260905194621 72 175 0.0 0.9 0.00 0.00 0.00 99 1015.7
20260905194120 73 174 0.0 0.0 0.00 0.00 0.00 99 1015.7
20260905193615 73 64 0.0 0.0 0.00 0.00 0.00 99 1016.0
20260905193110 73 16 0.0 0.9 0.00 0.00 0.00 99 1016.0
20260905192606 73 109 0.0 0.0 0.00 0.00 0.00 99 1015.7
20260905192102 73 86 0.0 0.0 0.00 0.00 0.00 99 1015.7
20260905191600 72 21 0.0 0.0 0.00 0.00 0.00 99 1015.7
20260905191059 72 21 0.0 0.0 0.00 0.00 0.00 99 1015.7
20260905190557 72 22 0.9 0.9 0.00 0.00 0.00 99 1016.0
20260905190056 72 22 0.0 0.0 0.00 0.00 0.00 99 1016.0
20260905185556 72 22 0.0 0.0 0.00 0.00 0.00 99 1016.4
20260905185056 72 22 0.0 0.0 0.00 0.00 0.00 99 1016.4
20260905184551 71 170 0.0 0.0 0.00 0.00 0.00 99 1016.4
20260905184050 71 233 0.0 0.0 0.00 0.00 0.00 99 1016.4
20260905183549 71 186 1.7 2.6 0.00 0.00 0.00 99 1016.7
20260905183044 71 93 0.0 0.0 0.00 0.00 0.00 99 1016.4
20260905182538 71 78 0.0 0.9 0.00 0.00 0.00 99 1016.4
20260905182038 71 145 0.0 0.9 0.00 0.00 0.00 99 1016.7
20260905181533 71 88 0.0 0.0 0.00 0.00 0.00 99 1017.1
20260905181032 71 135 0.0 0.0 0.00 0.00 0.00 99 1017.5
20260905180527 71 126 6.1 9.6 0.00 0.00 0.00 98 1017.1
20260905180023 76 119 5.2 7.0 0.00 0.00 0.00 96 1017.5
20260905175522 84 40 3.5 5.2 0.00 0.00 0.00 79 1016.7
20260905175018 87 23 1.7 1.7 0.00 0.00 0.00 73 1015.7
20260905174513 88 120 0.9 1.7 0.00 0.00 0.00 69 1015.7
20260905174009 88 92 0.0 0.9 0.00 0.00 0.00 70 1015.2
20260905173504 88 324 0.9 0.9 0.00 0.00 0.00 67 1015.2
20260905173000 88 323 2.6 2.6 0.00 0.00 0.00 66 1015.2
20260905172458 89 312 1.7 1.7 0.00 0.00 0.00 67 1015.7
20260905171954 91 230 0.0 0.0 0.00 0.00 0.00 66 1016.4
20260905171450 91 186 1.7 1.7 0.00 0.00 0.00 65 1016.0
20260905170946 93 289 2.6 2.6 0.00 0.00 0.00 59 1016.0
20260905170309 90 327 2.6 5.2 0.00 0.00 0.00 64 1015.7
20260905165808 90 327 2.6 5.2 0.00 0.00 0.00 64 1015.7
20260905165306 90 292 2.6 2.6 0.00 0.00 0.00 67 1015.7
20260905164803 91 296 3.5 5.2 0.00 0.00 0.00 66 1016.0
20260905164258 91 334 0.9 0.9 0.00 0.00 0.00 65 1016.0
20260905163754 91 306 0.9 1.7 0.00 0.00 0.00 66 1016.4
20260905163250 91 326 0.0 0.0 0.00 0.00 0.00 63 1016.4
20260905161144 88 317 3.5 4.3 0.00 0.00 0.00 67 1016.4
20260905160639 88 317 3.5 4.3 0.00 0.00 0.00 67 1016.4
20260905160138 88 271 0.0 0.0 0.00 0.00 0.00 70 1016.7
20260905155633 88 352 3.5 4.3 0.00 0.00 0.00 69 1016.7
20260905155131 87 348 2.6 4.3 0.00 0.00 0.00 70 1016.7
20260905154626 88 21 1.7 2.6 0.00 0.00 0.00 72 1016.7
20260905154122 88 302 1.7 2.6 0.00 0.00 0.00 73 1016.7
20260905153617 88 177 0.9 1.7 0.00 0.00 0.00 71 1016.7
20260905153112 86 182 0.9 0.9 0.00 0.00 0.00 76 1016.4
20260905152607 86 305 1.7 1.7 0.00 0.00 0.00 75 1016.7
20260905152101 85 291 2.6 2.6 0.00 0.00 0.00 77 1016.7
20260905151557 86 260 4.3 6.1 0.00 0.00 0.00 76 1016.7
20260905151052 86 315 0.9 2.6 0.00 0.00 0.00 78 1016.7
20260905150547 86 263 0.0 0.9 0.00 0.00 0.00 75 1016.4
20260905150040 88 255 0.9 0.9 0.00 0.00 0.00 77 1016.4
20260905145538 88 254 0.0 0.0 0.00 0.00 0.00 75 1016.7
20260905145038 86 254 0.9 0.9 0.00 0.00 0.00 72 1016.4
20260905144533 87 255 1.7 1.7 0.00 0.00 0.00 76 1016.7
20260905144032 85 245 0.0 0.0 0.00 0.00 0.00 78 1016.7
20260905143532 85 242 0.9 0.9 0.00 0.00 0.00 79 1016.4
20260905143027 84 244 0.0 0.9 0.00 0.00 0.00 78 1016.7
20260905142525 84 242 0.9 0.9 0.00 0.00 0.00 80 1016.7
20260905142021 84 237 0.0 0.0 0.00 0.00 0.00 80 1016.7
20260905141515 83 233 1.7 1.7 0.00 0.00 0.00 83 1016.7
20260905141012 83 201 1.7 1.7 0.00 0.00 0.00 80 1016.7
20260905140507 84 201 0.0 0.0 0.00 0.00 0.00 81 1017.1
20260905140005 83 200 0.0 0.0 0.00 0.00 0.00 83 1017.1
20260905135501 82 200 0.0 0.0 0.00 0.00 0.00 84 1016.7
20260905134956 80 200 0.0 0.9 0.00 0.00 0.00 88 1016.7
20260905134456 82 200 1.7 1.7 0.00 0.00 0.00 85 1017.1
20260905133955 81 200 0.0 0.9 0.00 0.00 0.00 85 1017.1
20260905133451 80 201 0.0 0.0 0.00 0.00 0.00 87 1017.1
20260905132949 80 200 0.0 0.9 0.00 0.00 0.00 88 1017.1
20260905132445 81 201 0.0 0.0 0.00 0.00 0.00 85 1017.1
20260905131939 80 200 0.0 0.0 0.00 0.00 0.00 87 1017.1
20260905131436 78 201 0.0 0.0 0.00 0.00 0.00 90 1017.5
20260905130936 75 201 0.0 0.0 0.00 0.00 0.00 95 1017.5
20260905130430 74 201 0.0 0.0 0.00 0.00 0.00 98 1017.5
20260905125929 74 201 0.0 0.0 0.00 0.00 0.00 99 1017.5
20260905125424 74 201 0.0 0.0 0.00 0.00 0.00 99 1017.5
20260905124920 71 200 0.0 0.0 0.00 0.00 0.00 99 1017.5
20260905124417 71 201 0.0 0.0 0.00 0.00 0.00 99 1017.1
20260905123916 71 352 0.0 0.0 0.00 0.00 0.00 99 1017.5
20260905123413 70 352 0.0 0.0 0.00 0.00 0.00 99 1017.5
20260905122908 69 353 0.0 0.0 0.00 0.00 0.00 99 1017.5
20260905122407 70 352 0.0 0.0 0.00 0.00 0.00 99 1017.5
20260905121903 70 352 0.0 0.0 0.00 0.00 0.00 99 1017.1
20260905121359 69 352 0.0 0.0 0.00 0.00 0.00 99 1017.1
20260905120857 67 353 0.0 0.0 0.00 0.00 0.00 99 1017.1
20260905120352 66 353 0.0 0.0 0.00 0.00 0.00 99 1017.1
20260905115847 66 353 0.0 0.0 0.00 0.00 0.00 99 1016.7
20260905115347 65 353 0.0 0.0 0.00 0.00 0.00 99 1016.7
20260905114841 65 43 0.0 0.0 0.00 0.00 0.00 99 1017.1
20260905114340 65 43 0.0 0.0 0.00 0.00 0.00 99 1017.1
20260905113840 65 43 0.0 0.0 0.00 0.00 0.00 99 1017.1
20260905113335 65 43 0.0 0.0 0.00 0.00 0.00 99 1016.7
20260905112831 65 43 0.0 0.0 0.00 0.00 0.00 99 1017.1
20260905112325 65 43 0.0 0.0 0.00 0.00 0.00 99 1016.7
20260905111821 65 43 0.0 0.0 0.00 0.00 0.00 99 1016.4
20260905111315 65 43 0.0 0.0 0.00 0.00 0.00 99 1016.4
20260905110814 64 43 0.0 0.0 0.00 0.00 0.00 99 1016.4
20260905110308 64 43 0.0 0.0 0.00 0.00 0.00 99 1016.4
20260905105804 64 43 0.0 0.0 0.00 0.00 0.00 99 1016.4
20260905105306 64 43 0.0 0.0 0.00 0.00 0.00 99 1016.4
20260905104757 64 43 0.0 0.0 0.00 0.00 0.00 99 1016.0
20260905104254 64 43 0.0 0.0 0.00 0.00 0.00 99 1016.0
20260905103753 64 43 0.0 0.0 0.00 0.00 0.00 99 1016.0
20260905103249 65 43 0.0 0.0 0.00 0.00 0.00 99 1016.0
20260905102744 64 43 0.0 0.0 0.00 0.00 0.00 99 1016.0
20260905102241 65 43 0.0 0.0 0.00 0.00 0.00 99 1015.7
20260905101740 65 43 0.0 0.0 0.00 0.00 0.00 99 1016.0
20260905101239 65 43 0.0 0.0 0.00 0.00 0.00 99 1015.7
20260905100734 65 43 0.0 0.0 0.00 0.00 0.00 99 1016.0
20260905100229 65 43 0.0 0.0 0.00 0.00 0.00 99 1016.0
20260905095724 65 43 0.0 0.0 0.00 0.00 0.00 99 1015.7
20260905095223 65 43 0.0 0.0 0.00 0.00 0.00 99 1016.0
20260905094718 65 43 0.0 0.0 0.00 0.00 0.00 99 1015.7
20260905094213 65 43 0.0 0.0 0.00 0.00 0.00 99 1016.0
20260905093713 65 43 0.0 0.0 0.00 0.00 0.00 99 1016.0
20260905093204 65 43 0.0 0.0 0.00 0.00 0.00 99 1016.4
20260905092658 65 43 0.0 0.0 0.00 0.00 0.00 99 1016.0
20260905092154 65 43 0.0 0.0 0.00 0.00 0.00 99 1016.0
20260905091654 65 43 0.0 0.0 0.00 0.00 0.00 99 1016.4
20260905091154 66 43 0.0 0.0 0.00 0.00 0.00 99 1016.0
20260905090653 66 43 0.0 0.0 0.00 0.00 0.00 99 1016.0
20260905090149 66 43 0.0 0.0 0.00 0.00 0.00 99 1016.4
20260905085648 66 43 0.0 0.0 0.00 0.00 0.00 99 1016.4
20260905085143 66 43 0.0 0.0 0.00 0.00 0.00 99 1016.0
20260905084642 66 43 0.0 0.0 0.00 0.00 0.00 99 1016.0
20260905084137 65 43 0.0 0.0 0.00 0.00 0.00 99 1016.4
20260905083632 66 43 0.0 0.0 0.00 0.00 0.00 99 1016.4
20260905083129 66 43 0.0 0.0 0.00 0.00 0.00 99 1016.4
20260905082624 66 43 0.0 0.0 0.00 0.00 0.00 99 1016.4
20260905082120 66 43 0.0 0.0 0.00 0.00 0.00 99 1016.7
20260905081620 66 43 0.0 0.0 0.00 0.00 0.00 99 1016.7
20260905081114 66 43 0.0 0.0 0.00 0.00 0.00 99 1016.4
20260905080609 66 43 0.0 0.0 0.00 0.00 0.00 99 1016.7
20260905080109 66 43 0.0 0.0 0.00 0.00 0.00 99 1016.7
20260905075608 67 43 0.0 0.0 0.00 0.00 0.00 99 1016.7
20260905075102 66 43 0.0 0.0 0.00 0.00 0.00 99 1016.7
20260905074601 67 43 0.0 0.0 0.00 0.00 0.00 99 1016.7
20260905074057 66 43 0.0 0.0 0.00 0.00 0.00 99 1017.1
20260905073553 66 43 0.0 0.0 0.00 0.00 0.00 99 1016.7
20260905073048 66 43 0.0 0.0 0.00 0.00 0.00 99 1016.7
20260905072547 67 43 0.0 0.0 0.00 0.00 0.00 99 1017.1
20260905072043 67 43 0.0 0.0 0.00 0.00 0.00 99 1016.7
20260905071540 67 43 0.0 0.0 0.00 0.00 0.00 99 1017.1
20260905071034 67 43 0.0 0.0 0.00 0.00 0.00 99 1017.1
20260905070530 67 43 0.0 0.0 0.00 0.00 0.00 99 1017.1
20260905070026 67 43 0.0 0.0 0.00 0.00 0.00 99 1017.1
20260905065523 67 43 0.0 0.0 0.00 0.00 0.00 99 1017.1
20260905065019 67 43 0.0 0.0 0.00 0.00 0.00 99 1017.1
20260905064519 67 43 0.0 0.0 0.00 0.00 0.00 99 1017.1
20260905064014 67 43 0.0 0.0 0.00 0.00 0.00 99 1017.1
20260905063513 68 43 0.0 0.0 0.00 0.00 0.00 99 1017.1
20260905063010 68 43 0.0 0.0 0.00 0.00 0.00 99 1017.5
20260905062509 67 43 0.0 0.0 0.00 0.00 0.00 99 1017.1
20260905062004 67 43 0.0 0.0 0.00 0.00 0.00 99 1017.1
20260905061500 67 43 0.0 0.0 0.00 0.00 0.00 99 1017.5
20260905060958 68 43 0.0 0.0 0.00 0.00 0.00 99 1017.5
20260905060454 68 43 0.0 0.0 0.00 0.00 0.00 99 1017.5
20260905055949 68 43 0.0 0.0 0.00 0.00 0.00 99 1017.5
20260905055448 68 43 0.0 0.0 0.00 0.00 0.00 99 1017.8
20260905054943 68 43 0.0 0.0 0.00 0.00 0.00 99 1017.5
20260905054438 68 43 0.0 0.0 0.00 0.00 0.00 99 1017.8
20260905053939 68 43 0.0 0.0 0.00 0.00 0.00 99 1017.8
20260905053434 68 43 0.0 0.0 0.00 0.00 0.00 99 1017.8
20260905052930 68 43 0.0 0.0 0.00 0.00 0.00 99 1017.8